| time (UTC) | temp F | wind direction | speed MPH | gust MPH | rain 1hr in | rain 24hr in | rain mn in | humidity % | barometer mb |
| 20260906162212 | 66 | 111 | 1.0 | 3.0 | 0.00 | 0.03 | 0.03 | 76 | 1014.5 |
| 20260906161713 | 66 | 312 | 1.0 | 3.0 | 0.00 | 0.03 | 0.03 | 75 | 1014.5 |
| 20260906161215 | 66 | 202 | 2.0 | 6.0 | 0.00 | 0.03 | 0.03 | 75 | 1014.5 |
| 20260906160713 | 66 | 107 | 2.0 | 6.0 | 0.00 | 0.03 | 0.03 | 75 | 1014.6 |
| 20260906160214 | 65 | 77 | 1.0 | 5.0 | 0.00 | 0.03 | 0.03 | 76 | 1014.6 |
| 20260906155712 | 65 | 244 | 2.0 | 5.0 | 0.00 | 0.03 | 0.03 | 76 | 1014.7 |
| 20260906155214 | 65 | 266 | 2.0 | 6.0 | 0.00 | 0.03 | 0.03 | 77 | 1014.7 |
| 20260906154714 | 65 | 185 | 2.0 | 7.0 | 0.00 | 0.03 | 0.03 | 76 | 1014.7 |
| 20260906154213 | 65 | 159 | 2.0 | 7.0 | 0.00 | 0.03 | 0.03 | 76 | 1014.7 |
| 20260906153719 | 65 | 203 | 2.0 | 6.0 | 0.00 | 0.03 | 0.03 | 78 | 1014.8 |
| 20260906153713 | 65 | 275 | 2.0 | 6.0 | 0.00 | 0.03 | 0.03 | 78 | 1014.8 |
| 20260906153331 | 65 | 133 | 2.0 | 5.0 | 0.00 | 0.03 | 0.03 | 79 | 1014.7 |
| 20260906152713 | 65 | 41 | 2.0 | 6.0 | 0.00 | 0.03 | 0.03 | 80 | 1014.7 |
| 20260906151718 | 65 | 119 | 2.0 | 7.0 | 0.00 | 0.03 | 0.03 | 78 | 1014.7 |
| 20260906151713 | 65 | 112 | 2.0 | 6.0 | 0.00 | 0.03 | 0.03 | 79 | 1014.7 |
| 20260906150713 | 65 | 132 | 2.0 | 7.0 | 0.00 | 0.03 | 0.03 | 78 | 1014.7 |
| 20260906150212 | 65 | 121 | 2.0 | 6.0 | 0.00 | 0.03 | 0.03 | 80 | 1014.7 |
| 20260906145712 | 65 | 99 | 2.0 | 6.0 | 0.00 | 0.03 | 0.03 | 80 | 1014.7 |
| 20260906145219 | 65 | 123 | 2.0 | 8.0 | 0.00 | 0.03 | 0.03 | 80 | 1014.8 |
| 20260906145213 | 65 | 109 | 2.0 | 8.0 | 0.00 | 0.03 | 0.03 | 79 | 1014.8 |
| 20260906144212 | 65 | 103 | 2.0 | 6.0 | 0.00 | 0.03 | 0.03 | 81 | 1014.6 |
| 20260906143713 | 65 | 121 | 2.0 | 6.0 | 0.00 | 0.03 | 0.03 | 82 | 1014.6 |
| 20260906143215 | 65 | 86 | 2.0 | 5.0 | 0.00 | 0.03 | 0.03 | 82 | 1014.6 |
| 20260906143211 | 65 | 63 | 2.0 | 4.0 | 0.00 | 0.03 | 0.03 | 82 | 1014.6 |
| 20260906142830 | 65 | 105 | 3.0 | 9.0 | 0.00 | 0.03 | 0.03 | 81 | 1014.5 |
| 20260906141710 | 65 | 270 | 3.0 | 9.0 | 0.00 | 0.03 | 0.03 | 81 | 1014.4 |
| 20260906141208 | 64 | 129 | 2.0 | 7.0 | 0.00 | 0.03 | 0.03 | 84 | 1014.5 |
| 20260906140709 | 64 | 51 | 2.0 | 7.0 | 0.00 | 0.03 | 0.03 | 85 | 1014.5 |
| 20260906140213 | 63 | 145 | 1.0 | 6.0 | 0.00 | 0.03 | 0.03 | 88 | 1014.5 |
| 20260906135709 | 63 | 104 | 1.0 | 3.0 | 0.00 | 0.03 | 0.03 | 88 | 1014.5 |
| 20260906135209 | 62 | 53 | 1.0 | 3.0 | 0.00 | 0.03 | 0.03 | 89 | 1014.5 |
| 20260906134707 | 62 | 49 | 1.0 | 3.0 | 0.00 | 0.03 | 0.03 | 88 | 1014.5 |
| 20260906134204 | 63 | 264 | 1.0 | 4.0 | 0.00 | 0.03 | 0.03 | 89 | 1014.6 |
| 20260906133704 | 62 | 261 | 1.0 | 4.0 | 0.00 | 0.03 | 0.03 | 89 | 1014.6 |
| 20260906133204 | 62 | 269 | 2.0 | 4.0 | 0.00 | 0.03 | 0.03 | 90 | 1014.6 |
| 20260906132704 | 63 | 270 | 1.0 | 4.0 | 0.00 | 0.03 | 0.03 | 90 | 1014.6 |
| 20260906132208 | 62 | 232 | 1.0 | 4.0 | 0.00 | 0.03 | 0.03 | 91 | 1014.4 |
| 20260906132202 | 63 | 287 | 1.0 | 3.0 | 0.00 | 0.03 | 0.03 | 91 | 1014.5 |
| 20260906131701 | 63 | 284 | 1.0 | 4.0 | 0.00 | 0.03 | 0.03 | 91 | 1014.5 |
| 20260906130700 | 63 | 299 | 2.0 | 5.0 | 0.00 | 0.03 | 0.03 | 92 | 1014.4 |
| 20260906130206 | 63 | 273 | 2.0 | 5.0 | 0.00 | 0.03 | 0.03 | 92 | 1014.4 |
| 20260906125700 | 62 | 298 | 2.0 | 7.0 | 0.00 | 0.03 | 0.03 | 93 | 1014.4 |
| 20260906125200 | 62 | 291 | 2.0 | 7.0 | 0.00 | 0.03 | 0.03 | 92 | 1014.4 |
| 20260906124701 | 62 | 284 | 2.0 | 5.0 | 0.00 | 0.03 | 0.03 | 93 | 1014.3 |
| 20260906124202 | 62 | 311 | 2.0 | 5.0 | 0.00 | 0.03 | 0.03 | 93 | 1014.3 |
| 20260906123701 | 62 | 286 | 2.0 | 4.0 | 0.00 | 0.03 | 0.03 | 93 | 1014.3 |
| 20260906123201 | 61 | 306 | 1.0 | 4.0 | 0.00 | 0.03 | 0.03 | 94 | 1014.2 |
| 20260906122700 | 61 | 277 | 2.0 | 4.0 | 0.00 | 0.03 | 0.03 | 94 | 1014.1 |
| 20260906122207 | 61 | 289 | 2.0 | 6.0 | 0.00 | 0.03 | 0.03 | 94 | 1014.1 |
| 20260906122200 | 61 | 273 | 2.0 | 3.0 | 0.00 | 0.03 | 0.03 | 94 | 1014.2 |
| 20260906121207 | 61 | 248 | 1.0 | 3.0 | 0.01 | 0.03 | 0.03 | 94 | 1014.0 |
| 20260906121202 | 61 | 265 | 2.0 | 6.0 | 0.01 | 0.03 | 0.03 | 94 | 1014.1 |
| 20260906120203 | 61 | 244 | 1.0 | 3.0 | 0.01 | 0.03 | 0.03 | 94 | 1014.0 |
| 20260906115659 | 60 | 300 | 1.0 | 4.0 | 0.01 | 0.03 | 0.03 | 94 | 1014.0 |
| 20260906115158 | 60 | 251 | 1.0 | 4.0 | 0.01 | 0.03 | 0.03 | 94 | 1014.0 |
| 20260906114658 | 60 | 250 | 1.0 | 4.0 | 0.01 | 0.03 | 0.03 | 94 | 1013.9 |
| 20260906114159 | 60 | 263 | 1.0 | 2.0 | 0.01 | 0.03 | 0.03 | 94 | 1013.9 |
| 20260906113706 | 60 | 264 | 1.0 | 2.0 | 0.01 | 0.03 | 0.03 | 94 | 1013.8 |
| 20260906113700 | 60 | 263 | 1.0 | 2.0 | 0.01 | 0.03 | 0.03 | 94 | 1013.8 |
| 20260906113315 | 60 | 264 | 0.0 | 2.0 | 0.02 | 0.03 | 0.03 | 94 | 1013.7 |
| 20260906112159 | 60 | 264 | 0.0 | 1.0 | 0.02 | 0.03 | 0.03 | 94 | 1013.6 |
| 20260906111657 | 60 | 264 | 0.0 | 1.0 | 0.02 | 0.03 | 0.03 | 94 | 1013.5 |
| 20260906111157 | 60 | 264 | 0.0 | 1.0 | 0.01 | 0.02 | 0.02 | 94 | 1013.4 |
| 20260906110656 | 59 | 264 | 0.0 | 1.0 | 0.01 | 0.02 | 0.02 | 94 | 1013.4 |
| 20260906110157 | 59 | 264 | 0.0 | 0.0 | 0.02 | 0.02 | 0.02 | 94 | 1013.3 |
| 20260906105656 | 60 | 264 | 0.0 | 0.0 | 0.02 | 0.02 | 0.02 | 93 | 1013.2 |
| 20260906105156 | 60 | 264 | 0.0 | 1.0 | 0.02 | 0.02 | 0.02 | 93 | 1013.1 |
| 20260906104701 | 60 | 264 | 0.0 | 1.0 | 0.02 | 0.02 | 0.02 | 93 | 1013.1 |
| 20260906104656 | 60 | 264 | 0.0 | 1.0 | 0.02 | 0.02 | 0.02 | 93 | 1013.1 |
| 20260906104316 | 60 | 264 | 0.0 | 1.0 | 0.02 | 0.02 | 0.02 | 93 | 1013.2 |
| 20260906103157 | 60 | 264 | 0.0 | 1.0 | 0.02 | 0.02 | 0.02 | 93 | 1013.2 |
| 20260906102655 | 60 | 264 | 1.0 | 2.0 | 0.01 | 0.01 | 0.01 | 93 | 1013.3 |
| 20260906102201 | 60 | 263 | 1.0 | 2.0 | 0.01 | 0.01 | 0.01 | 93 | 1013.3 |
| 20260906102157 | 60 | 264 | 1.0 | 2.0 | 0.01 | 0.01 | 0.01 | 93 | 1013.4 |
| 20260906101154 | 60 | 263 | 1.0 | 2.0 | 0.01 | 0.01 | 0.01 | 93 | 1013.1 |
| 20260906100656 | 60 | 254 | 1.0 | 2.0 | 0.01 | 0.01 | 0.01 | 93 | 1013.1 |
| 20260906100156 | 60 | 254 | 0.0 | 2.0 | 0.00 | 0.00 | 0.00 | 93 | 1013.0 |
| 20260906095653 | 60 | 254 | 0.0 | 0.0 | 0.00 | 0.00 | 0.00 | 92 | 1012.8 |
| 20260906095155 | 60 | 254 | 0.0 | 1.0 | 0.00 | 0.00 | 0.00 | 92 | 1012.7 |
| 20260906094701 | 60 | 254 | 0.0 | 2.0 | 0.00 | 0.00 | 0.00 | 92 | 1012.6 |
| 20260906094654 | 60 | 254 | 0.0 | 1.0 | 0.00 | 0.00 | 0.00 | 92 | 1012.7 |
| 20260906094155 | 60 | 254 | 0.0 | 2.0 | 0.00 | 0.00 | 0.00 | 92 | 1012.7 |
| 20260906093153 | 60 | 253 | 0.0 | 2.0 | 0.00 | 0.00 | 0.00 | 92 | 1012.7 |
| 20260906092656 | 60 | 253 | 1.0 | 2.0 | 0.00 | 0.00 | 0.00 | 92 | 1012.8 |
| 20260906092154 | 60 | 255 | 1.0 | 3.0 | 0.00 | 0.00 | 0.00 | 92 | 1012.7 |
| 20260906091655 | 60 | 276 | 1.0 | 3.0 | 0.00 | 0.00 | 0.00 | 92 | 1012.8 |
| 20260906091200 | 61 | 74 | 0.0 | 2.0 | 0.00 | 0.00 | 0.00 | 92 | 1012.6 |
| 20260906091155 | 61 | 74 | 0.0 | 2.0 | 0.00 | 0.00 | 0.00 | 92 | 1012.7 |
| 20260906090153 | 61 | 74 | 1.0 | 2.0 | 0.00 | 0.00 | 0.00 | 92 | 1012.4 |
| 20260906085652 | 61 | 77 | 0.0 | 2.0 | 0.00 | 0.00 | 0.00 | 92 | 1012.4 |
| 20260906085157 | 61 | 77 | 1.0 | 2.0 | 0.00 | 0.00 | 0.00 | 92 | 1012.4 |
| 20260906085152 | 61 | 78 | 0.0 | 2.0 | 0.00 | 0.00 | 0.00 | 92 | 1012.4 |
| 20260906084157 | 61 | 77 | 1.0 | 2.0 | 0.00 | 0.00 | 0.00 | 92 | 1012.2 |
| 20260906084151 | 61 | 77 | 1.0 | 2.0 | 0.00 | 0.00 | 0.00 | 92 | 1012.3 |
| 20260906083151 | 61 | 77 | 0.0 | 2.0 | 0.00 | 0.00 | 0.00 | 92 | 1012.0 |
| 20260906082652 | 61 | 77 | 0.0 | 2.0 | 0.00 | 0.00 | 0.00 | 93 | 1012.0 |
| 20260906082149 | 61 | 77 | 0.0 | 2.0 | 0.00 | 0.00 | 0.00 | 93 | 1012.1 |
| 20260906081651 | 61 | 77 | 0.0 | 2.0 | 0.00 | 0.00 | 0.00 | 93 | 1012.2 |
| 20260906081151 | 61 | 77 | 0.0 | 2.0 | 0.00 | 0.00 | 0.00 | 93 | 1012.1 |
| 20260906080651 | 61 | 78 | 0.0 | 2.0 | 0.00 | 0.00 | 0.00 | 93 | 1011.9 |
| 20260906080149 | 61 | 77 | 0.0 | 2.0 | 0.00 | 0.00 | 0.00 | 93 | 1011.9 |
| 20260906075650 | 61 | 77 | 0.0 | 1.0 | 0.00 | 0.00 | 0.00 | 93 | 1011.9 |
| 20260906075147 | 61 | 78 | 0.0 | 1.0 | 0.00 | 0.00 | 0.00 | 93 | 1011.8 |
| 20260906074647 | 61 | 78 | 0.0 | 1.0 | 0.00 | 0.00 | 0.00 | 93 | 1011.8 |
| 20260906074149 | 61 | 78 | 0.0 | 1.0 | 0.00 | 0.00 | 0.00 | 93 | 1011.8 |
| 20260906073654 | 61 | 77 | 0.0 | 1.0 | 0.00 | 0.00 | 0.00 | 93 | 1011.9 |
| 20260906073650 | 61 | 77 | 0.0 | 1.0 | 0.00 | 0.00 | 0.00 | 93 | 1011.9 |
| 20260906072647 | 61 | 77 | 0.0 | 1.0 | 0.00 | 0.00 | 0.00 | 93 | 1011.9 |
| 20260906072147 | 61 | 77 | 0.0 | 1.0 | 0.00 | 0.00 | 0.00 | 93 | 1011.9 |
| 20260906071648 | 61 | 77 | 0.0 | 1.0 | 0.00 | 0.00 | 0.00 | 94 | 1011.9 |
| 20260906071146 | 61 | 77 | 1.0 | 2.0 | 0.00 | 0.00 | 0.00 | 94 | 1012.0 |
| 20260906070650 | 61 | 77 | 1.0 | 2.0 | 0.00 | 0.00 | 0.00 | 94 | 1012.0 |
| 20260906070646 | 61 | 77 | 1.0 | 2.0 | 0.00 | 0.00 | 0.00 | 93 | 1011.9 |
| 20260906065646 | 61 | 78 | 0.0 | 2.0 | 0.00 | 0.00 | 0.00 | 94 | 1011.9 |
| 20260906065145 | 61 | 77 | 0.0 | 2.0 | 0.00 | 0.00 | 0.00 | 93 | 1011.9 |
| 20260906064645 | 60 | 77 | 0.0 | 0.0 | 0.00 | 0.00 | 0.00 | 93 | 1011.8 |
| 20260906064145 | 60 | 77 | 0.0 | 0.0 | 0.00 | 0.00 | 0.00 | 93 | 1011.8 |
| 20260906063644 | 60 | 77 | 0.0 | 1.0 | 0.00 | 0.00 | 0.00 | 93 | 1011.8 |
| 20260906063145 | 60 | 77 | 0.0 | 1.0 | 0.00 | 0.00 | 0.00 | 93 | 1011.8 |
| 20260906062650 | 60 | 77 | 0.0 | 0.0 | 0.00 | 0.00 | 0.00 | 92 | 1011.9 |
| 20260906062645 | 60 | 77 | 0.0 | 0.0 | 0.00 | 0.00 | 0.00 | 93 | 1011.9 |
| 20260906061643 | 60 | 77 | 0.0 | 0.0 | 0.00 | 0.00 | 0.00 | 92 | 1011.8 |
| 20260906061142 | 60 | 77 | 0.0 | 0.0 | 0.00 | 0.00 | 0.00 | 92 | 1011.8 |
| 20260906060643 | 60 | 77 | 0.0 | 0.0 | 0.00 | 0.00 | 0.00 | 92 | 1011.8 |
| 20260906060141 | 60 | 77 | 0.0 | 0.0 | 0.00 | 0.00 | 0.00 | 92 | 1011.9 |
| 20260906055642 | 60 | 77 | 0.0 | 0.0 | 0.00 | 0.00 | 0.00 | 92 | 1011.9 |
| 20260906055141 | 60 | 77 | 0.0 | 0.0 | 0.00 | 0.00 | 0.00 | 92 | 1011.9 |
| 20260906054641 | 61 | 77 | 0.0 | 0.0 | 0.00 | 0.00 | 0.00 | 92 | 1011.9 |
| 20260906054143 | 61 | 77 | 0.0 | 0.0 | 0.00 | 0.00 | 0.00 | 92 | 1012.0 |
| 20260906053642 | 61 | 77 | 0.0 | 0.0 | 0.00 | 0.00 | 0.00 | 92 | 1012.0 |
| 20260906053140 | 61 | 77 | 0.0 | 0.0 | 0.00 | 0.00 | 0.00 | 92 | 1012.1 |
| 20260906052639 | 61 | 77 | 0.0 | 0.0 | 0.00 | 0.00 | 0.00 | 92 | 1012.0 |
| 20260906052139 | 61 | 77 | 0.0 | 1.0 | 0.00 | 0.00 | 0.00 | 92 | 1012.0 |
| 20260906051640 | 61 | 77 | 0.0 | 1.0 | 0.00 | 0.00 | 0.00 | 92 | 1012.1 |
| 20260906051139 | 61 | 77 | 0.0 | 0.0 | 0.00 | 0.00 | 0.00 | 92 | 1012.2 |
| 20260906050639 | 61 | 77 | 0.0 | 0.0 | 0.00 | 0.00 | 0.00 | 92 | 1012.2 |
| 20260906050139 | 61 | 77 | 0.0 | 1.0 | 0.00 | 0.00 | 0.00 | 91 | 1012.3 |
| 20260906045639 | 61 | 77 | 0.0 | 1.0 | 0.00 | 0.00 | 0.00 | 91 | 1012.2 |
| 20260906045139 | 61 | 77 | 0.0 | 0.0 | 0.00 | 0.00 | 0.00 | 91 | 1012.2 |
| 20260906044641 | 61 | 77 | 0.0 | 0.0 | 0.00 | 0.00 | 0.00 | 91 | 1012.1 |
| 20260906044138 | 61 | 77 | 0.0 | 0.0 | 0.00 | 0.00 | 0.00 | 91 | 1012.1 |
| 20260906043639 | 62 | 77 | 0.0 | 0.0 | 0.00 | 0.00 | 0.00 | 91 | 1012.1 |
| 20260906043137 | 62 | 77 | 0.0 | 0.0 | 0.00 | 0.00 | 0.00 | 90 | 1012.1 |
| 20260906042636 | 62 | 77 | 0.0 | 0.0 | 0.00 | 0.00 | 0.00 | 90 | 1012.0 |
| 20260906042138 | 62 | 77 | 0.0 | 0.0 | 0.00 | 0.00 | 0.00 | 90 | 1012.0 |
| 20260906041638 | 62 | 77 | 0.0 | 0.0 | 0.00 | 0.00 | 0.00 | 90 | 1011.9 |
| 20260906041136 | 62 | 77 | 0.0 | 0.0 | 0.00 | 0.00 | 0.00 | 90 | 1011.9 |
| 20260906040636 | 62 | 77 | 0.0 | 0.0 | 0.00 | 0.00 | 0.00 | 90 | 1012.0 |
| 20260906040135 | 62 | 77 | 0.0 | 1.0 | 0.00 | 0.00 | 0.00 | 90 | 1012.0 |
| 20260906035636 | 62 | 77 | 0.0 | 1.0 | 0.00 | 0.00 | 0.00 | 90 | 1011.9 |
| 20260906035136 | 62 | 77 | 0.0 | 0.0 | 0.00 | 0.00 | 0.00 | 90 | 1011.8 |
| 20260906034636 | 62 | 77 | 0.0 | 0.0 | 0.00 | 0.00 | 0.00 | 89 | 1011.7 |
| 20260906034136 | 62 | 77 | 0.0 | 1.0 | 0.00 | 0.00 | 0.00 | 90 | 1011.6 |
| 20260906033636 | 62 | 77 | 0.0 | 1.0 | 0.00 | 0.00 | 0.00 | 89 | 1011.7 |
| 20260906033135 | 63 | 77 | 0.0 | 0.0 | 0.00 | 0.00 | 0.00 | 89 | 1011.7 |
| 20260906032632 | 63 | 77 | 0.0 | 1.0 | 0.00 | 0.00 | 0.00 | 89 | 1011.7 |
| 20260906032136 | 63 | 77 | 0.0 | 1.0 | 0.00 | 0.00 | 0.00 | 89 | 1011.7 |
| 20260906032131 | 63 | 77 | 0.0 | 1.0 | 0.00 | 0.00 | 0.00 | 89 | 1011.6 |
| 20260906031132 | 63 | 77 | 0.0 | 1.0 | 0.00 | 0.00 | 0.00 | 89 | 1011.8 |
| 20260906030637 | 63 | 77 | 0.0 | 1.0 | 0.00 | 0.00 | 0.00 | 89 | 1011.8 |
| 20260906030632 | 63 | 77 | 0.0 | 1.0 | 0.00 | 0.00 | 0.00 | 88 | 1011.7 |
| 20260906025631 | 63 | 77 | 0.0 | 1.0 | 0.00 | 0.00 | 0.00 | 89 | 1011.8 |
| 20260906025133 | 63 | 77 | 0.0 | 1.0 | 0.00 | 0.00 | 0.00 | 89 | 1011.8 |
| 20260906024630 | 63 | 77 | 0.0 | 1.0 | 0.00 | 0.00 | 0.00 | 89 | 1011.8 |
| 20260906024135 | 63 | 77 | 0.0 | 1.0 | 0.00 | 0.00 | 0.00 | 89 | 1011.8 |
| 20260906024130 | 63 | 77 | 0.0 | 1.0 | 0.00 | 0.00 | 0.00 | 89 | 1011.8 |
| 20260906023128 | 63 | 77 | 0.0 | 0.0 | 0.00 | 0.00 | 0.00 | 89 | 1011.8 |
| 20260906022628 | 63 | 77 | 0.0 | 0.0 | 0.00 | 0.00 | 0.00 | 89 | 1011.8 |
| 20260906022128 | 63 | 77 | 0.0 | 0.0 | 0.00 | 0.00 | 0.00 | 89 | 1011.8 |
| 20260906021626 | 63 | 77 | 0.0 | 0.0 | 0.00 | 0.00 | 0.00 | 88 | 1011.7 |
| 20260906021127 | 63 | 77 | 0.0 | 0.0 | 0.00 | 0.00 | 0.00 | 88 | 1011.8 |
| 20260906020627 | 64 | 77 | 0.0 | 0.0 | 0.00 | 0.00 | 0.00 | 88 | 1011.7 |
| 20260906020128 | 64 | 77 | 0.0 | 1.0 | 0.00 | 0.00 | 0.00 | 88 | 1011.7 |
| 20260906015628 | 64 | 77 | 0.0 | 1.0 | 0.00 | 0.00 | 0.00 | 88 | 1011.8 |
| 20260906015128 | 64 | 77 | 0.0 | 1.0 | 0.00 | 0.00 | 0.00 | 88 | 1011.8 |
| 20260906014626 | 64 | 77 | 0.0 | 1.0 | 0.00 | 0.00 | 0.00 | 88 | 1011.8 |
| 20260906014128 | 64 | 77 | 0.0 | 1.0 | 0.00 | 0.00 | 0.00 | 88 | 1011.8 |
| 20260906013632 | 64 | 77 | 0.0 | 1.0 | 0.00 | 0.00 | 0.00 | 87 | 1012.0 |
| 20260906013626 | 64 | 77 | 0.0 | 1.0 | 0.00 | 0.00 | 0.00 | 88 | 1011.8 |
| 20260906012627 | 64 | 77 | 0.0 | 1.0 | 0.00 | 0.00 | 0.00 | 87 | 1011.9 |
| 20260906012128 | 64 | 77 | 0.0 | 1.0 | 0.00 | 0.00 | 0.00 | 87 | 1011.8 |
| 20260906011627 | 64 | 77 | 0.0 | 1.0 | 0.00 | 0.00 | 0.00 | 87 | 1011.7 |
| 20260906011128 | 64 | 77 | 0.0 | 1.0 | 0.00 | 0.00 | 0.00 | 87 | 1011.7 |
| 20260906010626 | 64 | 77 | 0.0 | 1.0 | 0.00 | 0.00 | 0.00 | 87 | 1011.7 |
| 20260906010128 | 64 | 77 | 0.0 | 1.0 | 0.00 | 0.00 | 0.00 | 87 | 1011.6 |
| 20260906005627 | 64 | 77 | 0.0 | 1.0 | 0.00 | 0.00 | 0.00 | 87 | 1011.6 |
| 20260906005128 | 64 | 77 | 0.0 | 2.0 | 0.00 | 0.00 | 0.00 | 87 | 1011.7 |
| 20260906004626 | 64 | 77 | 1.0 | 2.0 | 0.00 | 0.00 | 0.00 | 87 | 1011.6 |
| 20260906004131 | 63 | 77 | 0.0 | 1.0 | 0.00 | 0.00 | 0.00 | 88 | 1011.5 |
| 20260906004127 | 63 | 77 | 0.0 | 2.0 | 0.00 | 0.00 | 0.00 | 88 | 1011.6 |
| 20260906003128 | 63 | 77 | 0.0 | 0.0 | 0.00 | 0.00 | 0.00 | 88 | 1011.4 |
| 20260906002628 | 63 | 77 | 0.0 | 1.0 | 0.00 | 0.00 | 0.00 | 88 | 1011.4 |
| 20260906002127 | 63 | 77 | 0.0 | 1.0 | 0.00 | 0.00 | 0.00 | 88 | 1011.3 |
| 20260906001626 | 63 | 77 | 0.0 | 0.0 | 0.00 | 0.00 | 0.00 | 88 | 1011.3 |
| 20260906001132 | 63 | 77 | 0.0 | 1.0 | 0.00 | 0.00 | 0.00 | 88 | 1011.2 |
| 20260906001126 | 63 | 77 | 0.0 | 0.0 | 0.00 | 0.00 | 0.00 | 88 | 1011.3 |
| 20260906000128 | 64 | 77 | 0.0 | 1.0 | 0.00 | 0.00 | 0.00 | 88 | 1011.1 |
| 20260906000124 | 64 | 77 | 0.0 | 1.0 | 0.00 | 0.00 | 0.00 | 88 | 1011.1 |
| 20260905235125 | 64 | 77 | 0.0 | 0.0 | 0.00 | 0.00 | 0.00 | 87 | 1011.2 |
| 20260905234624 | 64 | 77 | 0.0 | 0.0 | 0.00 | 0.00 | 0.00 | 87 | 1011.2 |
| 20260905234125 | 64 | 77 | 0.0 | 1.0 | 0.00 | 0.00 | 0.00 | 87 | 1011.1 |
| 20260905233624 | 64 | 77 | 0.0 | 1.0 | 0.00 | 0.00 | 0.00 | 86 | 1011.1 |
| 20260905233125 | 64 | 80 | 0.0 | 0.0 | 0.00 | 0.00 | 0.00 | 86 | 1011.0 |
| 20260905232624 | 64 | 80 | 0.0 | 1.0 | 0.00 | 0.00 | 0.00 | 86 | 1011.1 |
| 20260905232122 | 65 | 80 | 0.0 | 1.0 | 0.00 | 0.00 | 0.00 | 85 | 1011.1 |
| 20260905231623 | 65 | 79 | 0.0 | 1.0 | 0.00 | 0.00 | 0.00 | 85 | 1011.1 |
| 20260905231122 | 65 | 80 | 0.0 | 1.0 | 0.00 | 0.00 | 0.00 | 85 | 1011.2 |
| 20260905230625 | 65 | 80 | 0.0 | 1.0 | 0.00 | 0.00 | 0.00 | 84 | 1011.0 |
| 20260905230123 | 65 | 78 | 0.0 | 0.0 | 0.00 | 0.00 | 0.00 | 84 | 1011.0 |
| 20260905225623 | 65 | 78 | 0.0 | 1.0 | 0.00 | 0.00 | 0.00 | 83 | 1010.9 |
| 20260905225122 | 65 | 78 | 0.0 | 1.0 | 0.00 | 0.00 | 0.00 | 83 | 1011.0 |
| 20260905224623 | 66 | 78 | 0.0 | 1.0 | 0.00 | 0.00 | 0.00 | 82 | 1011.0 |
| 20260905224122 | 66 | 78 | 0.0 | 1.0 | 0.00 | 0.00 | 0.00 | 82 | 1011.1 |
| 20260905223622 | 66 | 78 | 0.0 | 1.0 | 0.00 | 0.00 | 0.00 | 81 | 1011.1 |
| 20260905223121 | 66 | 78 | 0.0 | 1.0 | 0.00 | 0.00 | 0.00 | 81 | 1011.0 |
| 20260905222621 | 66 | 78 | 0.0 | 2.0 | 0.00 | 0.00 | 0.00 | 80 | 1011.0 |
| 20260905222120 | 66 | 77 | 0.0 | 2.0 | 0.00 | 0.00 | 0.00 | 80 | 1011.1 |
| 20260905221628 | 67 | 77 | 1.0 | 2.0 | 0.00 | 0.00 | 0.00 | 79 | 1010.9 |
| 20260905221620 | 67 | 79 | 0.0 | 2.0 | 0.00 | 0.00 | 0.00 | 79 | 1011.0 |
| 20260905221121 | 67 | 78 | 1.0 | 2.0 | 0.00 | 0.00 | 0.00 | 79 | 1011.0 |
| 20260905220126 | 67 | 65 | 1.0 | 3.0 | 0.00 | 0.00 | 0.00 | 79 | 1010.7 |
| 20260905220120 | 67 | 75 | 1.0 | 3.0 | 0.00 | 0.00 | 0.00 | 80 | 1010.8 |
| 20260905215738 | 67 | 32 | 1.0 | 2.0 | 0.00 | 0.00 | 0.00 | 80 | 1010.6 |
| 20260905214619 | 67 | 166 | 1.0 | 3.0 | 0.00 | 0.00 | 0.00 | 80 | 1010.5 |
| 20260905214120 | 67 | 103 | 1.0 | 3.0 | 0.00 | 0.00 | 0.00 | 80 | 1010.5 |
| 20260905213618 | 67 | 98 | 1.0 | 3.0 | 0.00 | 0.00 | 0.00 | 80 | 1010.5 |
| 20260905213119 | 67 | 113 | 2.0 | 5.0 | 0.00 | 0.00 | 0.00 | 80 | 1010.4 |
| 20260905212619 | 67 | 136 | 2.0 | 6.0 | 0.00 | 0.00 | 0.00 | 80 | 1010.5 |
| 20260905212125 | 67 | 123 | 2.0 | 6.0 | 0.00 | 0.00 | 0.00 | 79 | 1010.4 |
| 20260905212119 | 67 | 123 | 2.0 | 7.0 | 0.00 | 0.00 | 0.00 | 80 | 1010.4 |
| 20260905211619 | 67 | 105 | 2.0 | 7.0 | 0.00 | 0.00 | 0.00 | 80 | 1010.4 |
| 20260905210618 | 68 | 301 | 2.0 | 6.0 | 0.00 | 0.00 | 0.00 | 79 | 1010.3 |
| 20260905210119 | 68 | 94 | 2.0 | 6.0 | 0.00 | 0.00 | 0.00 | 79 | 1010.3 |
| 20260905205616 | 68 | 78 | 2.0 | 5.0 | 0.00 | 0.00 | 0.00 | 79 | 1010.2 |
| 20260905205119 | 68 | 274 | 2.0 | 6.0 | 0.00 | 0.00 | 0.00 | 79 | 1010.1 |
| 20260905204618 | 68 | 96 | 2.0 | 6.0 | 0.00 | 0.00 | 0.00 | 80 | 1010.1 |
| 20260905204116 | 68 | 67 | 2.0 | 7.0 | 0.00 | 0.00 | 0.00 | 80 | 1010.1 |
| 20260905203614 | 68 | 116 | 2.0 | 7.0 | 0.00 | 0.00 | 0.00 | 80 | 1010.1 |
| 20260905203115 | 68 | 118 | 2.0 | 7.0 | 0.00 | 0.00 | 0.00 | 80 | 1010.0 |
| 20260905202614 | 68 | 82 | 2.0 | 6.0 | 0.00 | 0.00 | 0.00 | 79 | 1009.8 |
| 20260905202117 | 68 | 76 | 2.0 | 6.0 | 0.00 | 0.00 | 0.00 | 79 | 1009.8 |
| 20260905201620 | 69 | 77 | 1.0 | 4.0 | 0.00 | 0.00 | 0.00 | 79 | 1009.7 |
| 20260905201615 | 69 | 119 | 2.0 | 4.0 | 0.00 | 0.00 | 0.00 | 79 | 1009.8 |
| 20260905200618 | 69 | 205 | 2.0 | 5.0 | 0.00 | 0.00 | 0.00 | 78 | 1009.6 |
| 20260905200613 | 69 | 208 | 2.0 | 5.0 | 0.00 | 0.00 | 0.00 | 79 | 1009.6 |
| 20260905195621 | 69 | 45 | 2.0 | 8.0 | 0.00 | 0.00 | 0.00 | 79 | 1009.5 |
| 20260905195611 | 69 | 88 | 2.0 | 8.0 | 0.00 | 0.00 | 0.00 | 78 | 1009.6 |
| 20260905195114 | 69 | 116 | 2.0 | 8.0 | 0.00 | 0.00 | 0.00 | 78 | 1009.5 |
| 20260905194109 | 69 | 122 | 2.0 | 8.0 | 0.00 | 0.00 | 0.00 | 79 | 1009.5 |
| 20260905193611 | 69 | 67 | 2.0 | 7.0 | 0.00 | 0.00 | 0.00 | 79 | 1009.7 |
| 20260905193115 | 69 | 117 | 2.0 | 7.0 | 0.00 | 0.00 | 0.00 | 79 | 1009.6 |
| 20260905193111 | 69 | 94 | 2.0 | 7.0 | 0.00 | 0.00 | 0.00 | 79 | 1009.6 |
| 20260905192110 | 69 | 94 | 3.0 | 9.0 | 0.00 | 0.00 | 0.00 | 80 | 1009.7 |
| 20260905191608 | 69 | 71 | 3.0 | 9.0 | 0.00 | 0.00 | 0.00 | 78 | 1009.7 |
| 20260905191113 | 69 | 117 | 2.0 | 7.0 | 0.00 | 0.00 | 0.00 | 78 | 1009.8 |
| 20260905191108 | 69 | 84 | 2.0 | 8.0 | 0.00 | 0.00 | 0.00 | 79 | 1009.8 |
| 20260905190110 | 70 | 80 | 2.0 | 8.0 | 0.00 | 0.00 | 0.00 | 79 | 1009.8 |
| 20260905190104 | 70 | 127 | 2.0 | 8.0 | 0.00 | 0.00 | 0.00 | 79 | 1009.8 |
| 20260905185723 | 70 | 76 | 2.0 | 6.0 | 0.00 | 0.00 | 0.00 | 80 | 1009.7 |
| 20260905184608 | 71 | 259 | 2.0 | 5.0 | 0.00 | 0.00 | 0.00 | 77 | 1009.8 |
| 20260905184601 | 70 | 66 | 2.0 | 6.0 | 0.00 | 0.00 | 0.00 | 77 | 1009.7 |
| 20260905183602 | 72 | 211 | 2.0 | 4.0 | 0.00 | 0.00 | 0.00 | 76 | 1009.8 |
| 20260905183107 | 71 | 128 | 2.0 | 8.0 | 0.00 | 0.00 | 0.00 | 78 | 1009.7 |
| 20260905183102 | 72 | 79 | 2.0 | 6.0 | 0.00 | 0.00 | 0.00 | 77 | 1009.6 |
| 20260905182101 | 71 | 242 | 2.0 | 8.0 | 0.00 | 0.00 | 0.00 | 78 | 1009.9 |
| 20260905181603 | 70 | 306 | 2.0 | 5.0 | 0.00 | 0.00 | 0.00 | 80 | 1009.8 |
| 20260905181103 | 70 | 280 | 2.0 | 10.0 | 0.00 | 0.00 | 0.00 | 79 | 1009.8 |
| 20260905180602 | 70 | 255 | 2.0 | 10.0 | 0.00 | 0.00 | 0.00 | 78 | 1009.8 |
| 20260905180103 | 71 | 92 | 3.0 | 8.0 | 0.00 | 0.00 | 0.00 | 77 | 1009.8 |
| 20260905175606 | 72 | 119 | 3.0 | 8.0 | 0.00 | 0.00 | 0.00 | 76 | 1009.5 |
| 20260905175601 | 71 | 134 | 3.0 | 8.0 | 0.00 | 0.00 | 0.00 | 77 | 1009.6 |
| 20260905174601 | 72 | 267 | 3.0 | 7.0 | 0.00 | 0.00 | 0.00 | 78 | 1009.5 |
| 20260905174102 | 71 | 117 | 3.0 | 10.0 | 0.00 | 0.00 | 0.00 | 77 | 1009.5 |
| 20260905173608 | 71 | 111 | 3.0 | 10.0 | 0.00 | 0.00 | 0.00 | 78 | 1009.4 |
| 20260905173603 | 71 | 264 | 2.0 | 10.0 | 0.00 | 0.00 | 0.00 | 77 | 1009.6 |
| 20260905172601 | 71 | 98 | 2.0 | 10.0 | 0.00 | 0.00 | 0.00 | 78 | 1009.4 |
| 20260905172108 | 70 | 69 | 2.0 | 7.0 | 0.00 | 0.00 | 0.00 | 78 | 1009.4 |
| 20260905172104 | 71 | 107 | 2.0 | 5.0 | 0.00 | 0.00 | 0.00 | 79 | 1009.4 |
| 20260905171104 | 70 | 98 | 2.0 | 9.0 | 0.00 | 0.00 | 0.00 | 78 | 1009.4 |
| 20260905171058 | 70 | 206 | 2.0 | 8.0 | 0.00 | 0.00 | 0.00 | 78 | 1009.5 |
| 20260905170059 | 70 | 67 | 2.0 | 9.0 | 0.00 | 0.00 | 0.00 | 80 | 1009.4 |
| 20260905165558 | 70 | 106 | 2.0 | 5.0 | 0.00 | 0.00 | 0.00 | 79 | 1009.3 |
| 20260905165057 | 70 | 100 | 1.0 | 4.0 | 0.00 | 0.00 | 0.00 | 79 | 1009.3 |
| 20260905164556 | 70 | 78 | 1.0 | 4.0 | 0.00 | 0.00 | 0.00 | 79 | 1009.3 |
| 20260905164052 | 70 | 279 | 2.0 | 4.0 | 0.00 | 0.00 | 0.00 | 79 | 1009.2 |
| 20260905163553 | 70 | 127 | 2.0 | 7.0 | 0.00 | 0.00 | 0.00 | 79 | 1009.1 |
| 20260905163215 | 70 | 117 | 2.0 | 9.0 | 0.00 | 0.00 | 0.00 | 81 | 1009.2 |
| 20260905163054 | 70 | 92 | 1.0 | 4.0 | 0.00 | 0.00 | 0.00 | 80 | 1009.1 |
| 20260905163050 | 70 | 121 | 2.0 | 7.0 | 0.00 | 0.00 | 0.00 | 79 | 1009.1 |
| 20260905162709 | 70 | 269 | 1.0 | 3.0 | 0.00 | 0.00 | 0.00 | 81 | 1009.2 |